Location: Bonningues
(50.7927°N, 2.0150°E)
Time: 16:36:19
(UTC+00:00)

Cosmos 1933 Rocket - Pass Details

Date: 08 August 2020
Orbit: 606 x 630 km, 82.5° (Epoch: 18 September)

Event Time Altitude Azimuth Distance (km) Brightness Sun altitude
Exits shadow 22:01:24 22° 207° (SSW) 1,355 5.0 -18.7°
Maximum altitude 22:04:07 62° 283° (WNW) 705 3.9 -18.9°
Drops below altitude 10° 22:08:33 10° 5° (N) 2,013 7.0 -19.3°
Sets 22:10:49 0° 8° (N) 2,928 7.9 -19.4°
